When you browse on this site, cookies collect data to enhance your experience and personalize the content and advertising you see.
Visit our Privacy Policy to learn more. By continuing to use the site, you agree to this use of cookies and data.

Hourly Weather Gulbene

Today, 3 August, Monday

Time Temperature Precipitation Wind Pressure Humidity
00:00 +13°C° 0 mm 1 mps 746 mmHg 88%
01:00 +12°C° 0 mm 1 mps 746 mmHg 90%
02:00 +12°C° 0 mm 2 mps 746 mmHg 95%
03:00 +12°C° 0 mm 2 mps 746 mmHg 94%
04:00 +12°C° 0 mm 2 mps 746 mmHg 94%
05:00 +12°C° 0 mm 2 mps 746 mmHg 94%
06:00 +14°C° 0 mm 2 mps 746 mmHg 87%
07:00 +16°C° 0 mm 2 mps 746 mmHg 80%
08:00 +18°C° 0 mm 3 mps 746 mmHg 73%
09:00 +19°C° 0 mm 3 mps 746 mmHg 68%
10:00 +21°C° 0 mm 3 mps 746 mmHg 62%
11:00 +22°C° 0 mm 3 mps 746 mmHg 57%
12:00 +22°C° 0.1 mm 3 mps 746 mmHg 61%
13:00 +21°C° 0.1 mm 2 mps 746 mmHg 66%
14:00 +21°C° 0.1 mm 2 mps 745 mmHg 70%
15:00 +21°C° 0.1 mm 2 mps 745 mmHg 69%
16:00 +23°C° 0.1 mm 2 mps 745 mmHg 69%
17:00 +23°C° 0.1 mm 2 mps 745 mmHg 68%
18:00 +21°C° 0.1 mm 2 mps 745 mmHg 74%
19:00 +20°C° 0.1 mm 1 mps 745 mmHg 80%
20:00 +19°C° 0.1 mm 1 mps 745 mmHg 85%
21:00 +18°C° 0 mm 1 mps 745 mmHg 85%
22:00 +18°C° 0 mm 1 mps 745 mmHg 84%
23:00 +18°C° 0 mm 1 mps 745 mmHg 83%

Tomorrow, 4 August, Tuesday

Time Temperature Precipitation Wind Pressure Humidity
00:00 +16°C° 0 mm 1 mps 745 mmHg 84%
01:00 +16°C° 0 mm 1 mps 746 mmHg 85%
02:00 +15°C° 0 mm 0 mps 746 mmHg 86%
03:00 +16°C° 0.3 mm 1 mps 745 mmHg 89%
04:00 +16°C° 0.3 mm 1 mps 745 mmHg 93%
05:00 +15°C° 0.3 mm 1 mps 745 mmHg 97%
06:00 +16°C° 0 mm 2 mps 745 mmHg 94%
07:00 +18°C° 0 mm 3 mps 745 mmHg 92%
08:00 +19°C° 0 mm 3 mps 745 mmHg 89%
09:00 +20°C° 0 mm 4 mps 745 mmHg 81%
10:00 +21°C° 0 mm 4 mps 745 mmHg 72%
11:00 +23°C° 0 mm 5 mps 745 mmHg 64%
12:00 +23°C° 0.1 mm 4 mps 745 mmHg 66%
13:00 +22°C° 0.1 mm 4 mps 745 mmHg 69%
14:00 +22°C° 0.1 mm 3 mps 745 mmHg 71%
15:00 +21°C° 0.3 mm 3 mps 745 mmHg 77%
16:00 +21°C° 0.3 mm 2 mps 745 mmHg 82%
17:00 +20°C° 0.3 mm 2 mps 745 mmHg 88%
18:00 +19°C° 1.5 mm 2 mps 745 mmHg 91%
19:00 +19°C° 1.5 mm 2 mps 745 mmHg 95%
20:00 +18°C° 1.5 mm 2 mps 745 mmHg 99%
21:00 +19°C° 0.9 mm 1 mps 745 mmHg 99%
22:00 +19°C° 0.9 mm 1 mps 745 mmHg 99%
23:00 +19°C° 0.9 mm 1 mps 745 mmHg 99%

Day after tomorrow, 5 August, Wednesday

Time Temperature Precipitation Wind Pressure Humidity
00:00 +19°C° 0.4 mm 1 mps 745 mmHg 99%
01:00 +19°C° 0.4 mm 1 mps 746 mmHg 99%
02:00 +18°C° 0.4 mm 1 mps 746 mmHg 99%
03:00 +17°C° 0 mm 2 mps 746 mmHg 99%
04:00 +17°C° 0 mm 2 mps 747 mmHg 98%
05:00 +16°C° 0 mm 2 mps 747 mmHg 98%
06:00 +16°C° 0 mm 2 mps 747 mmHg 96%
07:00 +17°C° 0 mm 2 mps 748 mmHg 94%
08:00 +17°C° 0 mm 2 mps 749 mmHg 92%
09:00 +20°C° 0 mm 1 mps 749 mmHg 82%
10:00 +21°C° 0 mm 1 mps 750 mmHg 73%
11:00 +23°C° 0 mm 1 mps 750 mmHg 63%
12:00 +24°C° 0 mm 1 mps 750 mmHg 58%
13:00 +25°C° 0 mm 1 mps 751 mmHg 53%
14:00 +26°C° 0 mm 1 mps 751 mmHg 48%
15:00 +26°C° 0 mm 1 mps 751 mmHg 50%
16:00 +25°C° 0 mm 1 mps 751 mmHg 53%
17:00 +24°C° 0 mm 1 mps 752 mmHg 55%
18:00 +22°C° 0 mm 1 mps 752 mmHg 61%
19:00 +19°C° 0 mm 2 mps 752 mmHg 67%
20:00 +17°C° 0 mm 2 mps 752 mmHg 73%
21:00 +17°C° 0 mm 2 mps 753 mmHg 74%
22:00 +16°C° 0 mm 1 mps 753 mmHg 75%
23:00 +15°C° 0 mm 1 mps 754 mmHg 76%

6 August, Thursday

Time Temperature Precipitation Wind Pressure Humidity
00:00 +14°C° 0 mm 2 mps 754 mmHg 80%
01:00 +13°C° 0 mm 2 mps 754 mmHg 85%
02:00 +12°C° 0 mm 2 mps 754 mmHg 89%
03:00 +12°C° 0 mm 2 mps 755 mmHg 89%
04:00 +12°C° 0 mm 1 mps 755 mmHg 89%
05:00 +11°C° 0 mm 1 mps 755 mmHg 89%
06:00 +13°C° 0 mm 1 mps 755 mmHg 81%
07:00 +15°C° 0 mm 1 mps 756 mmHg 73%
08:00 +19°C° 0 mm 1 mps 756 mmHg 65%
09:00 +20°C° 0 mm 1 mps 756 mmHg 58%
10:00 +22°C° 0 mm 1 mps 756 mmHg 52%
11:00 +23°C° 0 mm 1 mps 757 mmHg 45%
12:00 +24°C° 0 mm 1 mps 757 mmHg 43%
13:00 +24°C° 0 mm 2 mps 757 mmHg 41%
14:00 +25°C° 0 mm 2 mps 757 mmHg 39%
15:00 +25°C° 0 mm 2 mps 757 mmHg 42%
16:00 +25°C° 0 mm 2 mps 756 mmHg 45%
17:00 +24°C° 0 mm 2 mps 756 mmHg 47%
18:00 +22°C° 0 mm 1 mps 757 mmHg 57%
19:00 +21°C° 0 mm 1 mps 757 mmHg 66%
20:00 +19°C° 0 mm 1 mps 757 mmHg 76%
21:00 +18°C° 0 mm 1 mps 757 mmHg 80%
22:00 +16°C° 0 mm 1 mps 757 mmHg 84%
23:00 +14°C° 0 mm 1 mps 758 mmHg 88%

7 August, Friday

Time Temperature Precipitation Wind Pressure Humidity
00:00 +14°C° 0 mm 1 mps 758 mmHg 89%
01:00 +14°C° 0 mm 1 mps 758 mmHg 89%
02:00 +14°C° 0 mm 1 mps 758 mmHg 90%
03:00 +13°C° 0 mm 1 mps 758 mmHg 90%
04:00 +13°C° 0 mm 1 mps 758 mmHg 91%
05:00 +13°C° 0 mm 1 mps 758 mmHg 91%
06:00 +15°C° 0 mm 1 mps 759 mmHg 84%
07:00 +18°C° 0 mm 1 mps 759 mmHg 76%
08:00 +18°C° 0 mm 0 mps 759 mmHg 69%
09:00 +22°C° 0 mm 1 mps 759 mmHg 64%
10:00 +24°C° 0 mm 1 mps 759 mmHg 59%
11:00 +25°C° 0 mm 1 mps 759 mmHg 54%
12:00 +25°C° 0 mm 1 mps 758 mmHg 56%
13:00 +25°C° 0 mm 1 mps 758 mmHg 57%
14:00 +24°C° 0 mm 1 mps 758 mmHg 58%
15:00 +24°C° 0.1 mm 2 mps 758 mmHg 63%
16:00 +23°C° 0.1 mm 2 mps 758 mmHg 67%
17:00 +21°C° 0.1 mm 2 mps 757 mmHg 72%
18:00 +20°C° 0 mm 2 mps 757 mmHg 76%
19:00 +19°C° 0 mm 2 mps 757 mmHg 81%
20:00 +19°C° 0 mm 1 mps 757 mmHg 86%
21:00 +18°C° 0 mm 1 mps 757 mmHg 86%
22:00 +18°C° 0 mm 1 mps 757 mmHg 86%
23:00 +18°C° 0 mm 1 mps 757 mmHg 86%

8 August, Saturday

Time Temperature Precipitation Wind Pressure Humidity
00:00 +16°C° 0 mm 1 mps 757 mmHg 88%
01:00 +16°C° 0 mm 1 mps 757 mmHg 90%
02:00 +15°C° 0 mm 1 mps 757 mmHg 92%
03:00 +15°C° 0 mm 1 mps 757 mmHg 93%
04:00 +14°C° 0 mm 1 mps 757 mmHg 93%
05:00 +14°C° 0 mm 1 mps 757 mmHg 94%
06:00 +15°C° 0 mm 1 mps 757 mmHg 88%
07:00 +18°C° 0 mm 1 mps 757 mmHg 81%
08:00 +19°C° 0 mm 2 mps 757 mmHg 75%
09:00 +20°C° 0 mm 2 mps 757 mmHg 70%
10:00 +21°C° 0 mm 2 mps 757 mmHg 64%
11:00 +23°C° 0 mm 2 mps 757 mmHg 59%
12:00 +23°C° 0 mm 2 mps 756 mmHg 59%
13:00 +23°C° 0 mm 2 mps 756 mmHg 59%
14:00 +23°C° 0 mm 2 mps 755 mmHg 59%
15:00 +24°C° 0 mm 2 mps 755 mmHg 59%
16:00 +24°C° 0 mm 1 mps 755 mmHg 59%
17:00 +24°C° 0 mm 1 mps 755 mmHg 59%
18:00 +23°C° 0.1 mm 1 mps 755 mmHg 65%
19:00 +21°C° 0.1 mm 1 mps 755 mmHg 72%
20:00 +20°C° 0.1 mm 1 mps 755 mmHg 78%
21:00 +19°C° 0 mm 1 mps 755 mmHg 80%
22:00 +18°C° 0 mm 1 mps 755 mmHg 82%
23:00 +16°C° 0 mm 1 mps 755 mmHg 84%
Show more